This is the latest recevied weather packets stored in our database for station/object KA8OAD-10. If no packets are shown the sender has not sent any weather packets the latest 10 day(s).
| Time | Temp. | Humidity | Pressure | Rain* | Wind** | Luminosity | Snow |
|---|---|---|---|---|---|---|---|
| 1777510351 | 8.89° C | 92% | 1009.4 hPa | 0 mm | - | 0 W/m² | - |
| 1777510050 | 8.89° C | 91% | 1009.4 hPa | 0 mm | - | 0 W/m² | - |
| 1777509750 | 8.89° C | 91% | 1009.2 hPa | 0 mm | - | 0 W/m² | - |
| 1777509450 | 8.89° C | 91% | 1009.1 hPa | 0 mm | - | 0 W/m² | - |
| 1777508852 | 8.89° C | 91% | 1009.1 hPa | 0 mm | - | 0 W/m² | - |
| 1777508251 | 8.89° C | 91% | 1008.9 hPa | 0 mm | - | 0 W/m² | - |
| 1777507951 | 8.89° C | 91% | 1008.8 hPa | 0 mm | - | 0 W/m² | - |
| 1777507650 | 8.89° C | 91% | 1008.8 hPa | 0 mm | - | 0 W/m² | - |
| 1777507350 | 8.89° C | 91% | 1008.5 hPa | 0 mm | - | 0 W/m² | - |
| 1777507050 | 8.89° C | 91% | 1008.5 hPa | 0 mm | - | 0 W/m² | - |
| 1777506150 | 8.89° C | 91% | 1008.4 hPa | 0 mm | - | 7 W/m² | - |
| 1777505850 | 9.44° C | 91% | 1008.5 hPa | 0 mm | - | 12 W/m² | - |
| 1777504952 | 9.44° C | 91% | 1008.5 hPa | 0 mm | - | 11 W/m² | - |
| 1777504351 | 9.44° C | 91% | 1008.5 hPa | 0 mm | - | 11 W/m² | - |
| 1777504051 | 9.44° C | 91% | 1008.4 hPa | 0 mm | - | 14 W/m² | - |
| 1777502853 | 9.44° C | 91% | 1008.5 hPa | 0 mm | - | 14 W/m² | - |
| 1777502552 | 10° C | 91% | 1008.3 hPa | 0 mm | - | 18 W/m² | - |
| 1777501651 | 10° C | 91% | 1008 hPa | 0 mm | - | 12 W/m² | - |
| 1777501050 | 10° C | 91% | 1007.9 hPa | 0 mm | - | 16 W/m² | - |
| 1777500753 | 10° C | 91% | 1008 hPa | 0 mm | - | 28 W/m² | - |
| 1777500453 | 10° C | 91% | 1008 hPa | 0 mm | - | 19 W/m² | - |
| 1777500152 | 10° C | 91% | 1007.9 hPa | 0 mm | - | 21 W/m² | - |
| 1777499551 | 10° C | 91% | 1007.8 hPa | 0 mm | - | 16 W/m² | - |
| 1777498950 | 10° C | 91% | 1007.7 hPa | 0 mm | - | 23 W/m² | - |
| 1777498650 | 10° C | 91% | 1007.7 hPa | 0 mm | - | 21 W/m² | - |
* Rain latest hour (hover to see other rain measurements)
** Current wind speed in m/s (hover to see current wind gust speed)